SCP
0 0 0 0 0 0 0 0 0 0 0 0 0 0 0 0 0 0 0 0 0 0 0 0 0 0 0 0 0 0 0 0 0 0 0 0 0 0 0 0 0 0 0 0
0 0 0 0 0 0 0 0 0 0 0 0 0 0 0 0 0 0 0 0 0 0 0 0 0 0 0 0 0 0 0 0 0 0 0 0 0 0 0 0 0 0 0 0
0 0 0 0 0 0 0 0 0 0 0 0 0 0 -0 0 0 0 0 0 0 0 0 0 0 0 0 0 0 0 0 0 0 0 0 0 0 0 0 0 0 0 0 0
0 0 0 0 0 0 0 0 0 0 0 0 0 0 0 0 0 0 0 0 0 0 0 0 0 0 0 0 0 0 0 0 0 0 0 0 0 0 0 0 0 0 0 0
0 0 0 0 0 0 0 0 0 0 0 0 0 0 0 0 0 0 0 0 0 0 0 0 0 0 0 0 0 0 0 0 0 0 0 0 0 0 0 0 0 0 0 0
0 0 0 0 0 0 0 0 0 0 0 0 0 0 -0 0 0 0 0 0 0 0 0 0 0 0 0 0 0 0 0 0 0 0 0 0 0 0 0 0 0 0 0 0
0 0 0 0 0 0 0 0 0 0 0 0 0 0 0 0 0 0 0 0 0 0 0 0 0 0 0 0 0 0 0 0 0 0 0 0 0 0 0 0 0 0 0 0
0 0 0 0 0 0 0 0 0 0 0 0 0 0 0 0 0 0 0 0 0 0 0 0 0 0 0 0 0 0 0 0 0 0 0 0 0 0 0 0 0 0 0 0
0 0 0 0 0 0 0 0 0 0 0 0 0 0 0 0 0 0 0 0 0 0 0 0 0 0 0 0 0 0 0 0 0 0 0 0 0 0 0 0 0 0 0 0
0 0 0 0 0 0 0 0 0 0 0 0 0 0 0 0 0 0 0 0 0 0 0 0 0 0 0 0 0 0 0 0 0 0 0 0 0 0 0 0 0 0 0 0
0 0 0 0 0 0 0 0 0 0 0 0 0 0 0 0 0 0 0 0 0 0 0 0 0 0 0 0 0 0 0 0 0 0 0 0 0 0 0 0 0 0 0 0
0 0 0 0 0 0 0 0 0 0 0 0 0 0 0 0 0 0 0 0 0 0 0 0 0 0 0 0 0 0 0 0 0 0 0 0 0 0 0 0 0 0 0 0
0 0 0 0 0 0 0 0 0 0 0 0 0 0 0 0 0 0 0 0 0 0 0 0 0 0 -0 -0 0 0 0 0 0 0 0 0 0 0 0 0 0 0 0 0
0 0 0 0 0 0 0 0 0 0 0 0 0 0 0 0 0 0 0 0 0 0 0 0 0 -0 -0 -0 0 0 0 0 0 0 0 0 0 0 0 0 0 0 0 0
0 0 0 0 0 0 0 0 0 0 0 0 0 0 0 0 0 0 0 0 -0 -0 -0 -0 -0 -0 0 0 0 0 0 0 0 0 0 0 0 0 0 0 0 0 0 0
0 0 0 0 0 0 0 0 0 0 0 0 0 0 0 0 0 0 0 -0 -0 -0 -0 -0 -0 0 0 0 0 0 0 0 0 0 0 0 0 0 0 0 0 0 0 0
0 0 0 0 0 0 0 0 0 0 0 0 0 0 0 0 0 0 0 0 -0 -0 0 0 0 0 0 0 0 0 0 0 0 0 0 0 0 0 0 0 0 0 0 0
0 0 0 0 0 0 0 0 0 0 0 0 0 0 0 0 0 0 0 0 0 0 0 0 0 0 0 0 0 0 0 0 0 0 0 0 0 0 0 0 0 0 0 0
0 0 0 0 0 0 0 0 0 0 0 0 0 0 0 0 0 0 0 0 0 0 0 0 0 0 0 0 0 0 0 0 0 0 0 0 0 0 0 0 0 0 0 0
0 0 0 0 0 0 0 0 0 0 0 0 0 0 0 0 0 0 0 0 0 0 0 0 0 0 0 0 0 0 0 0 0 0 0 0 0 0 0 0 0 0 0 0
0 0 0 0 0 0 0 0 0 0 0 0 0 0 0 0 0 0 0 0 0 0 0 0 0 0 0 0 0 0 0 0 0 0 0 0 0 0 0 0 0 0 0 0
0 0 0 0 0 0 0 0 0 0 0 0 0 0 0 0 0 0 0 0 0 0 0 0 0 0 0 0 0 0 0 0 0 0 0 0 0 0 0 0 0 0 0 0
0 0 0 0 0 0 0 0 0 0 0 0 0 0 0 0 0 0 0 0 0 0 0 0 0 0 0 0 0 0 0 0 0 0 0 0 0 0 0 0 0 0 0 0
0 0 0 0 -0 0 -0 -0 -0 -0 -0 0 0 0 0 0 0 0 0 0 0 0 0 0 0 0 0 0 0 0 0 0 0 0 0 0 0 0 0 0 0 0 0 0
0 0 0 0 0 -0 -0 -0 -0 -0 -0 -0 -0 -0 0 0 0 0 0 0 0 0 0 0 0 0 0 0 0 0 0 0 0 0 0 0 0 0 0 0 0 0 0 0
0 0 0 0 0 0 0 0 0 0 -0 -0 -0 -0 -0 -0 0 0 0 0 0 0 0 0 0 0 0 0 0 0 0 0 0 0 0 0 0 0 0 0 0 0 0 0
Wind_Speed_500mb
10 9 27 40 30 12 5 10 12 6 10 9 17 28 18 37 23 32 55 65 70 74 73 73 70 63 58 65 69 72 74 73 72 74 72 64 61 48 38 45 44 48 49 45
6 28 36 10 17 21 11 16 29 7 7 10 7 28 19 21 23 43 59 69 80 76 75 76 68 63 65 67 69 76 77 76 75 75 73 65 57 49 48 48 47 57 53 52
25 10 16 21 12 25 34 39 28 8 4 6 6 31 11 17 24 51 65 80 71 73 72 68 63 58 54 63 71 75 80 77 75 75 77 70 61 59 56 55 63 66 56 51
19 10 7 10 28 29 38 25 10 9 8 12 5 18 11 11 16 12 29 29 43 43 39 38 41 47 50 48 53 67 75 77 75 76 80 79 72 70 66 63 60 54 54 57
20 14 13 31 25 25 22 11 20 16 17 5 9 5 10 1 12 22 10 9 7 11 16 19 18 15 22 34 42 50 64 72 73 73 76 75 72 67 59 58 58 59 59 58
7 11 10 14 5 21 14 10 9 7 7 3 16 15 20 12 17 5 5 1 4 5 6 9 9 2 7 17 26 37 49 59 67 69 71 72 70 67 61 59 60 62 61 58
4 10 5 5 8 8 2 11 4 2 3 16 7 14 38 9 12 12 13 15 22 37 40 38 29 20 9 4 11 22 35 47 57 65 68 68 69 67 65 62 61 63 62 62
16 15 19 13 10 16 22 10 11 16 9 4 6 14 15 8 7 16 15 30 34 40 40 33 28 24 15 8 1 13 24 36 47 56 61 63 68 69 67 64 61 60 59 60
11 14 2 8 6 2 11 9 18 7 4 2 8 15 17 12 3 4 19 28 31 28 28 23 21 19 15 10 4 9 15 25 36 45 54 63 68 70 66 61 60 60 57 55
8 13 3 3 2 2 5 5 9 4 10 9 12 11 16 2 12 11 12 17 24 15 15 17 14 11 9 7 8 14 19 24 29 39 48 56 62 66 66 63 61 58 56 55
7 2 1 1 11 23 3 6 5 4 6 10 4 12 13 15 20 33 17 28 19 14 11 9 8 9 11 11 11 13 18 24 30 36 42 48 54 60 62 62 60 57 55 55
6 4 12 15 2 4 1 14 34 10 11 7 2 15 5 16 17 21 20 21 17 11 9 4 5 11 15 15 15 15 16 20 24 30 35 41 46 51 56 58 56 54 53 52
2 6 3 9 4 4 6 9 5 2 3 12 15 14 11 10 17 22 25 16 13 8 10 10 4 7 14 19 20 19 19 17 20 24 29 34 39 45 48 50 50 50 51 50
10 9 11 9 5 3 2 4 11 8 13 16 21 5 4 3 13 12 13 10 9 11 10 9 8 7 7 12 20 24 21 22 20 20 24 29 33 36 40 43 44 46 48 49
5 7 4 10 9 8 10 11 11 26 26 19 23 25 14 11 8 8 3 6 10 12 9 11 15 16 17 16 17 17 19 24 23 21 21 22 26 31 35 37 39 42 45 47
9 6 3 8 14 16 16 21 20 28 26 38 32 38 9 3 9 12 14 11 11 11 7 12 15 18 22 23 22 18 11 15 23 21 17 18 21 25 29 32 33 37 43 46
4 5 3 8 10 3 15 26 29 14 14 29 26 31 13 3 10 19 22 15 10 3 8 11 15 16 22 25 24 19 11 6 18 19 16 16 18 21 24 27 29 34 40 44
10 8 7 6 1 10 12 1 10 29 18 19 28 14 5 8 27 28 20 5 7 2 6 10 12 11 17 21 21 18 12 0 14 18 16 15 16 18 21 23 26 31 37 42
28 7 6 7 6 14 17 9 6 7 10 28 29 27 19 23 16 7 9 9 9 5 9 10 13 14 17 18 19 17 12 4 10 15 14 13 13 14 17 20 23 29 35 41
13 18 6 4 8 8 7 15 27 5 6 23 32 30 32 7 7 3 12 13 12 10 10 12 13 16 17 17 17 16 9 7 13 17 16 12 11 12 14 18 24 29 35 40
7 5 26 23 12 6 16 25 33 6 9 29 33 38 47 19 9 11 15 16 18 19 17 16 16 16 18 17 15 13 8 6 11 15 17 16 14 13 14 18 23 30 38 45
6 4 5 7 15 14 43 12 13 7 18 32 35 47 46 41 44 32 31 30 28 25 23 20 18 16 16 14 13 11 6 8 10 13 16 17 17 17 18 21 29 35 44 51
5 8 4 1 1 6 33 38 27 26 19 32 37 46 46 52 51 42 44 50 43 38 31 26 22 18 17 13 10 10 6 8 9 12 16 17 19 20 21 24 32 43 50 57
9 5 6 8 5 14 13 14 2 10 15 12 17 25 27 30 35 37 39 42 50 47 36 30 25 19 16 12 10 7 5 7 9 12 17 20 21 25 27 31 35 43 53 62
10 9 8 9 8 20 9 20 13 14 9 1 8 12 17 22 24 30 33 41 43 43 37 31 27 20 15 11 7 4 5 7 9 15 19 22 24 26 31 34 38 44 50 53
12 13 8 17 2 8 9 14 13 8 4 5 11 17 19 25 27 29 32 39 41 41 37 30 25 20 15 9 3 2 9 12 10 17 21 25 28 32 36 42 46 40 45 49
Wind_Direction_500mb
194 180 216 212 209 223 221 216 231 224 198 171 230 253 241 268 259 253 263 266 265 263 267 268 264 260 254 246 243 241 237 239 236 232 233 231 233 226 227 237 244 245 240 234
122 226 229 192 202 229 220 239 254 266 171 189 291 267 230 233 252 247 257 262 264 264 268 269 271 267 256 251 246 240 238 237 237 234 233 233 237 235 233 236 233 241 238 232
214 200 179 183 186 217 229 231 235 219 151 204 328 284 225 249 242 249 252 257 266 269 275 277 274 266 258 248 245 241 239 237 235 234 227 231 239 238 235 231 222 229 232 233
236 246 195 206 234 199 236 215 194 174 130 250 104 276 275 236 245 238 256 262 269 276 271 276 277 262 248 246 244 241 238 237 235 233 229 235 244 241 241 235 231 235 230 232
227 185 191 223 223 182 244 184 191 196 204 127 218 252 266 349 267 256 230 228 256 277 279 295 297 271 236 237 242 243 238 236 234 235 235 239 246 241 243 238 230 230 230 228
274 321 187 189 78 188 150 91 66 75 119 196 203 170 265 192 216 206 178 160 287 18 30 34 30 71 203 221 230 237 238 236 236 236 238 240 241 241 242 238 232 230 229 229
232 208 207 165 112 60 206 148 151 18 159 232 172 172 250 272 227 191 155 122 105 91 81 73 70 70 81 164 218 231 235 237 239 238 239 240 237 241 245 245 242 235 230 230
228 248 173 178 213 180 191 210 157 198 193 239 115 219 250 254 303 218 157 132 117 89 79 71 66 63 61 67 194 236 238 237 238 240 240 240 239 241 245 247 245 241 238 237
204 251 68 15 102 111 198 218 153 90 141 84 227 269 296 227 278 112 137 135 122 102 72 78 68 57 42 25 310 257 249 246 244 245 243 241 240 241 245 248 247 243 241 240
291 288 17 8 100 80 219 204 83 193 166 215 244 261 235 174 193 183 160 144 124 94 58 67 53 29 10 343 293 266 254 252 251 249 246 245 244 244 245 246 247 246 243 239
350 270 18 22 214 190 130 172 125 136 202 195 233 249 213 231 196 170 168 139 96 91 75 47 20 344 321 306 297 278 264 254 252 249 246 245 244 244 245 246 247 245 243 240
201 227 261 226 33 354 356 213 197 196 203 238 141 258 316 248 165 150 150 130 111 100 87 41 330 311 309 302 289 275 270 265 256 248 246 245 244 243 244 245 246 245 241 238
247 205 306 310 347 12 210 200 197 169 77 198 199 257 0 78 107 140 134 115 105 101 92 75 36 297 285 280 276 271 261 257 252 247 244 242 241 242 242 244 245 244 239 234
326 198 209 200 158 101 309 281 204 163 225 219 238 318 318 131 139 162 139 89 125 119 90 66 50 25 335 309 292 275 263 252 246 243 240 240 241 243 243 244 244 240 235 231
286 260 188 263 230 194 225 221 221 214 234 223 253 243 231 222 179 159 143 189 164 138 110 68 41 10 359 359 338 306 264 245 238 235 237 238 239 241 242 243 242 237 231 227
328 289 346 274 254 217 247 236 221 228 247 249 259 270 260 278 203 195 208 207 185 185 102 68 34 12 5 359 350 341 298 245 220 217 222 228 233 239 241 242 239 232 225 223
248 289 289 265 325 185 269 233 210 200 211 227 236 258 191 208 324 286 254 193 179 164 47 32 28 15 11 3 357 351 342 260 207 196 202 215 224 231 237 239 234 226 220 217
232 189 293 277 12 230 243 301 198 215 32 355 307 309 306 237 238 244 266 268 166 122 34 17 18 28 8 6 4 6 9 306 186 182 190 204 215 226 231 230 226 221 215 211
229 211 226 267 229 305 316 14 1 141 51 10 351 329 293 236 170 55 67 106 119 80 48 15 15 25 11 10 15 20 29 87 159 169 179 195 206 218 223 223 216 212 210 206
215 222 212 206 253 244 256 316 328 265 69 -0 2 5 358 80 161 58 43 47 42 39 28 16 23 31 17 19 27 36 33 100 141 149 159 176 193 207 213 210 207 204 200 201
356 232 216 231 250 279 349 316 308 64 23 344 3 16 21 47 36 41 32 34 23 6 5 6 8 20 24 25 31 42 55 107 141 148 160 171 180 188 195 200 200 197 191 188
212 256 256 242 220 239 333 23 68 351 355 4 11 26 22 28 34 29 28 22 15 5 357 1 9 14 17 20 30 31 43 106 135 151 167 174 178 180 184 190 188 187 186 182
287 170 217 231 168 157 78 109 114 74 44 18 17 9 12 14 11 10 9 5 1 353 347 348 356 0 5 5 19 31 53 105 134 160 170 174 175 174 174 184 185 180 182 180
303 180 187 58 257 203 199 270 84 106 59 21 26 360 350 352 355 358 352 350 342 337 333 336 340 347 351 2 24 36 64 118 146 172 174 171 174 172 171 175 180 183 182 179
195 127 189 253 264 271 252 130 158 144 106 143 299 314 334 333 332 324 328 328 326 319 316 321 325 329 335 353 13 66 126 147 178 180 173 170 172 172 170 173 178 182 183 189
193 199 201 255 316 287 78 112 106 116 118 239 287 293 294 311 299 293 291 299 303 300 302 304 308 312 322 332 350 140 158 156 188 191 173 170 169 164 163 165 160 169 181 185
Wind_Speed_850mb
10 9 27 40 30 12 5 10 12 6 10 9 17 28 18 37 23 32 55 65 70 74 73 73 70 63 58 65 69 72 74 73 72 74 72 64 61 48 38 45 44 48 49 45
6 28 36 10 17 21 11 16 29 7 7 10 7 28 19 21 23 43 59 69 80 76 75 76 68 63 65 67 69 76 77 76 75 75 73 65 57 49 48 48 47 57 53 52
25 10 16 21 12 25 34 39 28 8 4 6 6 31 11 17 24 51 65 80 71 73 72 68 63 58 54 63 71 75 80 77 75 75 77 70 61 59 56 55 63 66 56 51
19 10 7 10 28 29 38 25 10 9 8 12 5 18 11 11 16 12 29 29 43 43 39 38 41 47 50 48 53 67 75 77 75 76 80 79 72 70 66 63 60 54 54 57
20 14 13 31 25 25 22 11 20 16 17 5 9 5 10 1 12 22 10 9 7 11 16 19 18 15 22 34 42 50 64 72 73 73 76 75 72 67 59 58 58 59 59 58
7 11 10 14 5 21 14 10 9 7 7 3 16 15 20 12 17 5 5 1 4 5 6 9 9 2 7 17 26 37 49 59 67 69 71 72 70 67 61 59 60 62 61 58
4 10 5 5 8 8 2 11 4 2 3 16 7 14 38 9 12 12 13 15 22 37 40 38 29 20 9 4 11 22 35 47 57 65 68 68 69 67 65 62 61 63 62 62
16 15 19 13 10 16 22 10 11 16 9 4 6 14 15 8 7 16 15 30 34 40 40 33 28 24 15 8 1 13 24 36 47 56 61 63 68 69 67 64 61 60 59 60
11 14 2 8 6 2 11 9 18 7 4 2 8 15 17 12 3 4 19 28 31 28 28 23 21 19 15 10 4 9 15 25 36 45 54 63 68 70 66 61 60 60 57 55
8 13 3 3 2 2 5 5 9 4 10 9 12 11 16 2 12 11 12 17 24 15 15 17 14 11 9 7 8 14 19 24 29 39 48 56 62 66 66 63 61 58 56 55
7 2 1 1 11 23 3 6 5 4 6 10 4 12 13 15 20 33 17 28 19 14 11 9 8 9 11 11 11 13 18 24 30 36 42 48 54 60 62 62 60 57 55 55
6 4 12 15 2 4 1 14 34 10 11 7 2 15 5 16 17 21 20 21 17 11 9 4 5 11 15 15 15 15 16 20 24 30 35 41 46 51 56 58 56 54 53 52
2 6 3 9 4 4 6 9 5 2 3 12 15 14 11 10 17 22 25 16 13 8 10 10 4 7 14 19 20 19 19 17 20 24 29 34 39 45 48 50 50 50 51 50
10 9 11 9 5 3 2 4 11 8 13 16 21 5 4 3 13 12 13 10 9 11 10 9 8 7 7 12 20 24 21 22 20 20 24 29 33 36 40 43 44 46 48 49
5 7 4 10 9 8 10 11 11 26 26 19 23 25 14 11 8 8 3 6 10 12 9 11 15 16 17 16 17 17 19 24 23 21 21 22 26 31 35 37 39 42 45 47
9 6 3 8 14 16 16 21 20 28 26 38 32 38 9 3 9 12 14 11 11 11 7 12 15 18 22 23 22 18 11 15 23 21 17 18 21 25 29 32 33 37 43 46
4 5 3 8 10 3 15 26 29 14 14 29 26 31 13 3 10 19 22 15 10 3 8 11 15 16 22 25 24 19 11 6 18 19 16 16 18 21 24 27 29 34 40 44
10 8 7 6 1 10 12 1 10 29 18 19 28 14 5 8 27 28 20 5 7 2 6 10 12 11 17 21 21 18 12 0 14 18 16 15 16 18 21 23 26 31 37 42
28 7 6 7 6 14 17 9 6 7 10 28 29 27 19 23 16 7 9 9 9 5 9 10 13 14 17 18 19 17 12 4 10 15 14 13 13 14 17 20 23 29 35 41
13 18 6 4 8 8 7 15 27 5 6 23 32 30 32 7 7 3 12 13 12 10 10 12 13 16 17 17 17 16 9 7 13 17 16 12 11 12 14 18 24 29 35 40
7 5 26 23 12 6 16 25 33 6 9 29 33 38 47 19 9 11 15 16 18 19 17 16 16 16 18 17 15 13 8 6 11 15 17 16 14 13 14 18 23 30 38 45
6 4 5 7 15 14 43 12 13 7 18 32 35 47 46 41 44 32 31 30 28 25 23 20 18 16 16 14 13 11 6 8 10 13 16 17 17 17 18 21 29 35 44 51
5 8 4 1 1 6 33 38 27 26 19 32 37 46 46 52 51 42 44 50 43 38 31 26 22 18 17 13 10 10 6 8 9 12 16 17 19 20 21 24 32 43 50 57
9 5 6 8 5 14 13 14 2 10 15 12 17 25 27 30 35 37 39 42 50 47 36 30 25 19 16 12 10 7 5 7 9 12 17 20 21 25 27 31 35 43 53 62
10 9 8 9 8 20 9 20 13 14 9 1 8 12 17 22 24 30 33 41 43 43 37 31 27 20 15 11 7 4 5 7 9 15 19 22 24 26 31 34 38 44 50 53
12 13 8 17 2 8 9 14 13 8 4 5 11 17 19 25 27 29 32 39 41 41 37 30 25 20 15 9 3 2 9 12 10 17 21 25 28 32 36 42 46 40 45 49
Wind_Direction_850mb
194 180 216 212 209 223 221 216 231 224 198 171 230 253 241 268 259 253 263 266 265 263 267 268 264 260 254 246 243 241 237 239 236 232 233 231 233 226 227 237 244 245 240 234
122 226 229 192 202 229 220 239 254 266 171 189 291 267 230 233 252 247 257 262 264 264 268 269 271 267 256 251 246 240 238 237 237 234 233 233 237 235 233 236 233 241 238 232
214 200 179 183 186 217 229 231 235 219 151 204 328 284 225 249 242 249 252 257 266 269 275 277 274 266 258 248 245 241 239 237 235 234 227 231 239 238 235 231 222 229 232 233
236 246 195 206 234 199 236 215 194 174 130 250 104 276 275 236 245 238 256 262 269 276 271 276 277 262 248 246 244 241 238 237 235 233 229 235 244 241 241 235 231 235 230 232
227 185 191 223 223 182 244 184 191 196 204 127 218 252 266 349 267 256 230 228 256 277 279 295 297 271 236 237 242 243 238 236 234 235 235 239 246 241 243 238 230 230 230 228
274 321 187 189 78 188 150 91 66 75 119 196 203 170 265 192 216 206 178 160 287 18 30 34 30 71 203 221 230 237 238 236 236 236 238 240 241 241 242 238 232 230 229 229
232 208 207 165 112 60 206 148 151 18 159 232 172 172 250 272 227 191 155 122 105 91 81 73 70 70 81 164 218 231 235 237 239 238 239 240 237 241 245 245 242 235 230 230
228 248 173 178 213 180 191 210 157 198 193 239 115 219 250 254 303 218 157 132 117 89 79 71 66 63 61 67 194 236 238 237 238 240 240 240 239 241 245 247 245 241 238 237
204 251 68 15 102 111 198 218 153 90 141 84 227 269 296 227 278 112 137 135 122 102 72 78 68 57 42 25 310 257 249 246 244 245 243 241 240 241 245 248 247 243 241 240
291 288 17 8 100 80 219 204 83 193 166 215 244 261 235 174 193 183 160 144 124 94 58 67 53 29 10 343 293 266 254 252 251 249 246 245 244 244 245 246 247 246 243 239
350 270 18 22 214 190 130 172 125 136 202 195 233 249 213 231 196 170 168 139 96 91 75 47 20 344 321 306 297 278 264 254 252 249 246 245 244 244 245 246 247 245 243 240
201 227 261 226 33 354 356 213 197 196 203 238 141 258 316 248 165 150 150 130 111 100 87 41 330 311 309 302 289 275 270 265 256 248 246 245 244 243 244 245 246 245 241 238
247 205 306 310 347 12 210 200 197 169 77 198 199 257 0 78 107 140 134 115 105 101 92 75 36 297 285 280 276 271 261 257 252 247 244 242 241 242 242 244 245 244 239 234
326 198 209 200 158 101 309 281 204 163 225 219 238 318 318 131 139 162 139 89 125 119 90 66 50 25 335 309 292 275 263 252 246 243 240 240 241 243 243 244 244 240 235 231
286 260 188 263 230 194 225 221 221 214 234 223 253 243 231 222 179 159 143 189 164 138 110 68 41 10 359 359 338 306 264 245 238 235 237 238 239 241 242 243 242 237 231 227
328 289 346 274 254 217 247 236 221 228 247 249 259 270 260 278 203 195 208 207 185 185 102 68 34 12 5 359 350 341 298 245 220 217 222 228 233 239 241 242 239 232 225 223
248 289 289 265 325 185 269 233 210 200 211 227 236 258 191 208 324 286 254 193 179 164 47 32 28 15 11 3 357 351 342 260 207 196 202 215 224 231 237 239 234 226 220 217
232 189 293 277 12 230 243 301 198 215 32 355 307 309 306 237 238 244 266 268 166 122 34 17 18 28 8 6 4 6 9 306 186 182 190 204 215 226 231 230 226 221 215 211
229 211 226 267 229 305 316 14 1 141 51 10 351 329 293 236 170 55 67 106 119 80 48 15 15 25 11 10 15 20 29 87 159 169 179 195 206 218 223 223 216 212 210 206
215 222 212 206 253 244 256 316 328 265 69 -0 2 5 358 80 161 58 43 47 42 39 28 16 23 31 17 19 27 36 33 100 141 149 159 176 193 207 213 210 207 204 200 201
356 232 216 231 250 279 349 316 308 64 23 344 3 16 21 47 36 41 32 34 23 6 5 6 8 20 24 25 31 42 55 107 141 148 160 171 180 188 195 200 200 197 191 188
212 256 256 242 220 239 333 23 68 351 355 4 11 26 22 28 34 29 28 22 15 5 357 1 9 14 17 20 30 31 43 106 135 151 167 174 178 180 184 190 188 187 186 182
287 170 217 231 168 157 78 109 114 74 44 18 17 9 12 14 11 10 9 5 1 353 347 348 356 0 5 5 19 31 53 105 134 160 170 174 175 174 174 184 185 180 182 180
303 180 187 58 257 203 199 270 84 106 59 21 26 360 350 352 355 358 352 350 342 337 333 336 340 347 351 2 24 36 64 118 146 172 174 171 174 172 171 175 180 183 182 179
195 127 189 253 264 271 252 130 158 144 106 143 299 314 334 333 332 324 328 328 326 319 316 321 325 329 335 353 13 66 126 147 178 180 173 170 172 172 170 173 178 182 183 189
193 199 201 255 316 287 78 112 106 116 118 239 287 293 294 311 299 293 291 299 303 300 302 304 308 312 322 332 350 140 158 156 188 191 173 170 169 164 163 165 160 169 181 185